Regional Weather Roundup
Issued by NWS

Home | Current Version | Previous Version | Graphics & Text | Print | Product List | Glossary On
Versions: 1 2 3 4 5 6 7 8 9 10 11 12 13 14 15 16 17 18 19 20 21 22 23 24 25 26 27 28 29 30 31 32 33 34 35 36 37 38 39 40 41 42 43 44 45 46 47 48 49 50
000
ASUS45 KCYS 101410
RWRWY

WYOMING REGIONAL WEATHER ROUNDUP
NATIONAL WEATHER SERVICE CHEYENNE WY
700 AM MST SAT DEC 10 2016

NOTE:  "FAIR" INDICATES FEW OR NO CLOUDS BELOW 12,000 FEET
WITH NO SIGNIFICANT WEATHER AND/OR OBSTRUCTIONS TO VISIBILITY.

WYZ001-101500-
YELLOWSTONE NATIONAL PARK

CITY           SKY/WX    TMP DP  RH WIND       PRES   REMARKS
LK YELLOWSTONE   N/A     27  24  89 VRB5G18   29.76F WCI  22
W YELLOWSTONE  NOT AVBL

$$
WYZ002>013-054>058-071-098>099-101500-
NORTHERN WYOMING

CITY           SKY/WX    TMP DP  RH WIND       PRES   REMARKS
JACKSON        LGT SNOW  34  34 100 S12       29.80F WCI  25
CODY           CLOUDY    12   7  80 NE3       29.76S
GREYBULL       FAIR       9   4  80 CALM      29.83F
WORLAND        FAIR       5   2  87 CALM      29.81F
SHERIDAN       FAIR      11   5  77 CALM      29.83F
BUFFALO        FAIR       7   1  76 SW3       29.76F
GILLETTE       FAIR       4   0  83 S15       29.82F WCI -14
HULETT         CLOUDY     3   0  85 CALM      29.87F
NEWCASTLE      FAIR       3   0  85 CALM      29.90F

$$
WYZ014>020-022>026-101>103-101500-
CENTRAL WYOMING

CITY           SKY/WX    TMP DP  RH WIND       PRES   REMARKS
BIG PINEY      CLOUDY    22  20  92 NW3       29.86F
PINEDALE       CLOUDY    27  27 100 NE8       29.87F WCI  18
DUBOIS         CLOUDY    32  27  80 NW8G17    29.74S WCI  25
LANDER         FAIR      12   6  77 MISG      29.77S
RIVERTON       FAIR      13   7  77 CALM      29.78F
CASPER         FLURRIES  35  26  69 SW36G45   29.77F WCI  21
DOUGLAS        FAIR       7   3  84 SE7       29.81F WCI  -5

$$
WYZ021-027>030-104>119-101500-
SOUTHERN WYOMING

CITY           SKY/WX    TMP DP  RH WIND       PRES   REMARKS
EVANSTON       SNOW      33  31  92 SW18      29.95F VSB 1/4 WCI  22
KEMMERER       LGT SNOW  32  32 100 SW18      29.91F WCI  20
FORT BRIDGER   CLOUDY    35  35 100 W24G30    29.95F WCI  23
ROCK SPRINGS   FAIR      30  22  72 SW10      29.92F WCI  21
DIXON          CLOUDY    35  24  64 SW9       29.98F WCI  28
RAWLINS        CLOUDY    36  20  52 SW22G32   29.89S WCI  25
SARATOGA       CLOUDY    36  23  60 CALM      29.93R
LARAMIE        MOCLDY    38  20  48 SW13        N/A  WCI  30
CHEYENNE       FAIR      40  20  44 SW10      29.89F WCI  33
TORRINGTON     MOCLDY    14  10  84 E6        29.88F WCI   5
PINE BLUFFS    FAIR      21  18  86 SW8       29.90F WCI  12

$$



USA.gov is the U.S. government's official web portal to all federal, state and local government web resources and services.